Location: Corte Bragagnani
(45.3000°N, 11.1000°E)
Time: 18:44:11
(UTC+00:00)

SAR-Lupe-2 - Pass Details

Date: 09 April 2020
Orbit: 481 x 485 km, 98.1° (Epoch: 27 May)

Event Time Altitude Azimuth Distance (km) Brightness Sun altitude
Rises 20:15:46 0° 10° (N) 2,554 7.6 -23.0°
Reaches altitude 10° 20:17:51 10° 6° (N) 1,669 6.7 -23.3°
Enters shadow 20:21:13 59° 301° (WNW) 562 4.0 -23.8°
